Temperature
19 18 18 18 18 18 18 18 18 18 18 18 18 18 18 18 18 18 18 18 18 18 18 18 18 18 18 18 18 18 18 18 18 18 18 18 18 18 18 18 17 17 18
19 18 18 18 18 18 18 18 18 18 18 18 18 18 18 18 18 18 18 18 18 18 18 18 18 18 18 18 18 18 18 18 18 18 18 18 18 18 18 17 17 17 17
19 18 18 18 18 18 18 18 18 18 18 18 18 18 18 18 18 18 18 18 18 18 18 18 18 18 18 18 18 18 18 18 18 18 17 17 17 18 18 18 17 17 17
19 18 17 18 18 18 18 18 18 18 18 18 18 18 18 18 18 18 18 18 18 18 18 18 18 18 18 18 18 18 18 17 18 17 17 17 17 17 17 17 17 17 17
19 18 18 18 18 18 18 18 18 18 18 18 18 18 18 18 18 18 18 18 18 18 18 17 18 17 17 18 17 18 18 18 17 17 17 17 17 17 17 17 17 17 17
19 18 17 18 18 18 18 18 18 18 18 18 18 18 18 18 18 18 18 18 18 18 17 17 17 17 17 17 17 17 17 17 17 17 17 17 17 17 17 17 17 17 17
19 19 18 18 18 18 18 18 18 18 18 18 18 18 18 18 18 18 18 18 18 18 18 17 17 17 17 17 17 17 17 17 17 17 17 17 17 17 17 17 17 17 17
19 19 18 18 18 18 18 18 18 18 18 18 18 18 18 18 18 18 18 18 18 18 17 17 17 17 17 17 17 17 17 17 17 17 17 17 17 17 17 17 17 17 17
19 19 18 18 18 18 18 18 18 18 18 18 18 18 18 18 18 18 18 17 17 17 17 17 17 17 17 17 17 17 17 17 17 17 17 17 17 17 17 17 17 17 17
19 19 18 18 18 18 17 18 18 18 18 18 18 18 18 18 18 18 17 17 17 17 17 17 17 17 17 17 17 17 17 17 17 17 17 17 17 17 17 17 17 17 17
18 18 19 19 18 18 18 17 17 18 18 18 18 18 17 17 17 17 17 17 17 17 17 17 17 17 17 17 17 17 17 17 17 17 17 17 17 17 17 17 17 17 17
19 18 18 18 18 18 18 17 17 17 17 17 17 17 17 17 17 17 17 17 17 17 17 17 17 17 17 17 17 17 17 17 17 17 17 17 17 17 17 17 17 17 17
19 18 18 18 18 18 18 18 18 17 17 17 17 17 17 17 17 17 17 17 17 17 17 17 17 17 17 17 17 17 17 17 17 17 17 17 17 17 17 17 17 17 17
19 18 18 18 18 18 18 18 18 18 17 18 17 17 17 17 17 17 17 17 17 17 17 17 17 17 17 17 17 17 17 17 17 17 17 17 17 17 17 17 17 17 17
19 19 18 18 18 18 18 18 18 17 18 18 17 17 17 17 17 17 17 17 17 17 17 17 17 17 17 17 17 17 17 17 17 17 17 17 17 17 17 17 17 17 17
19 19 18 18 18 18 18 18 18 18 18 17 17 17 17 17 17 17 17 17 17 17 17 17 17 17 17 17 17 17 17 17 17 17 17 17 17 17 17 17 17 17 17
19 19 18 18 18 18 18 18 18 18 18 18 18 18 17 17 17 17 17 17 17 17 17 17 17 17 17 17 17 17 17 17 17 17 17 17 17 17 17 17 17 17 17
19 19 19 18 18 18 18 18 18 18 18 18 18 18 17 17 17 17 17 17 17 17 17 17 17 17 17 17 17 17 17 17 17 17 17 17 17 17 17 17 17 17 17
19 19 19 18 18 18 18 18 18 18 18 18 18 17 17 17 17 17 17 17 17 17 17 17 17 17 17 17 17 17 17 17 17 17 17 17 17 17 17 17 17 17 17
19 19 19 19 18 18 18 18 18 18 18 18 18 18 17 17 17 17 17 17 17 17 17 17 17 17 17 17 18 18 17 17 17 17 17 17 17 17 17 17 17 17 17
19 19 19 19 19 18 18 18 18 18 18 18 18 18 18 17 17 17 17 17 17 17 17 17 17 17 17 17 17 18 18 18 18 17 17 17 17 17 17 17 17 17 17
20 19 19 19 19 19 18 18 18 18 17 18 18 17 17 17 17 17 17 17 17 17 17 17 17 17 17 17 17 18 18 18 17 18 17 17 17 17 17 17 17 17 17
20 19 19 19 19 19 18 18 18 18 18 18 17 17 17 17 17 17 17 17 17 17 17 17 17 17 17 17 17 17 18 19 18 18 17 17 17 17 17 17 17 17 16
20 19 19 19 19 19 19 18 18 18 18 18 17 17 17 17 17 17 17 17 17 17 17 17 17 17 17 17 17 17 17 18 18 18 17 17 17 17 17 17 17 16 16
20 19 19 19 19 19 19 18 18 18 18 18 17 17 17 17 17 17 17 17 17 17 17 17 17 17 17 17 17 17 17 17 17 17 17 17 17 17 16 16 16 16 16
20 20 19 19 19 19 19 18 18 18 18 18 17 17 17 17 17 17 17 17 17 17 17 17 17 17 17 17 17 17 17 17 17 17 17 17 17 16 16 16 16 16 16
Wind_Speed
6 9 11 9 11 11 12 12 12 12 12 12 12 11 11 11 12 12 13 14 14 14 14 13 14 15 15 15 15 15 15 15 15 16 16 16 16 15 15 15 15 16 17
9 10 11 10 11 11 12 12 12 12 11 11 11 11 11 11 11 12 13 13 14 14 14 14 14 14 14 15 15 14 14 14 15 15 15 15 15 15 14 12 10 15 16
9 11 11 10 11 11 11 11 11 11 11 11 11 11 11 11 12 13 13 13 13 13 14 14 14 14 14 14 14 14 13 13 13 13 13 13 14 14 14 14 15 16 16
9 10 11 11 10 11 10 10 11 11 11 11 11 11 11 12 12 13 13 13 13 14 14 14 14 13 13 13 13 13 13 12 11 10 10 11 12 14 14 15 15 14 15
10 11 12 10 10 10 10 10 10 10 10 10 10 10 11 12 12 12 13 13 13 13 14 13 13 13 12 12 12 12 12 10 8 6 9 10 11 13 14 15 15 14 14
9 10 13 9 10 9 10 10 10 10 11 10 10 11 11 12 12 12 13 13 13 12 13 13 12 12 12 11 11 10 10 9 8 8 8 9 11 13 13 13 14 14 13
9 10 12 9 9 9 9 10 10 10 10 10 10 11 11 12 12 12 12 12 12 12 12 12 12 11 11 10 10 9 8 6 5 7 8 9 11 13 12 13 13 13 12
8 9 12 10 9 9 9 9 10 10 10 10 10 10 11 11 12 12 12 12 12 11 11 11 11 10 10 10 9 9 7 5 7 7 7 9 13 12 12 12 12 12 12
7 7 8 10 11 10 9 8 9 10 10 9 9 10 10 11 11 11 11 10 10 10 10 10 10 10 9 9 8 7 5 2 4 6 7 9 12 11 11 11 12 11 11
5 6 7 7 7 8 10 9 9 9 9 9 9 9 9 11 11 11 11 9 10 10 10 9 9 9 9 9 8 7 5 5 4 6 6 10 12 11 11 11 11 10 10
5 4 4 6 6 6 7 9 9 9 8 8 9 7 6 7 9 9 11 9 9 9 9 8 8 8 8 9 8 6 6 4 5 4 6 12 11 11 10 10 10 10 10
6 5 4 4 5 5 5 7 5 6 7 5 6 6 6 6 6 8 11 9 9 9 9 7 6 8 7 7 8 8 4 3 4 5 8 12 11 10 10 10 9 10 9
6 5 5 4 3 4 4 4 4 4 5 5 6 5 5 5 6 7 7 8 8 8 7 8 7 4 4 3 3 3 2 2 3 4 9 12 10 10 10 10 10 10 10
5 5 5 4 4 3 2 3 3 3 3 4 5 3 4 3 3 5 4 5 5 5 4 4 3 3 2 3 3 2 2 2 3 4 8 11 10 10 10 10 10 11 10
5 5 4 4 4 3 3 2 2 2 2 3 3 3 2 3 3 3 3 2 3 4 4 3 3 3 3 3 3 3 2 2 2 3 7 11 10 9 10 10 11 11 11
4 4 4 4 4 4 4 3 2 2 2 2 2 3 2 2 2 2 3 2 2 2 2 2 3 2 3 2 2 2 3 3 3 3 5 9 11 10 10 10 11 12 12
4 4 4 5 5 5 4 3 2 2 2 2 2 2 3 2 2 2 2 2 2 2 2 2 2 2 3 3 3 2 3 3 3 3 4 5 8 11 11 10 10 11 12
5 5 5 4 5 5 4 3 2 1 2 2 2 3 3 2 3 3 2 2 2 3 3 2 2 2 2 2 2 2 2 3 4 4 5 5 5 6 11 13 12 12 13
5 5 5 5 4 4 4 3 3 2 2 2 3 3 3 4 4 4 2 2 3 3 3 3 2 2 2 2 3 3 3 3 4 5 5 5 5 6 6 10 13 12 12
5 5 5 5 4 4 3 3 3 3 3 3 3 3 3 4 4 4 3 3 4 3 3 2 2 2 3 3 4 2 3 4 4 4 5 5 6 7 7 7 9 11 12
5 5 5 5 4 4 3 3 3 3 3 3 3 3 4 4 4 4 4 3 4 3 4 3 3 3 4 3 3 3 4 5 5 4 4 4 5 6 6 6 6 6 8
6 5 5 5 5 5 3 2 2 2 2 2 2 2 4 4 4 5 4 4 4 4 4 5 4 4 4 4 4 4 4 4 4 4 4 4 4 4 4 5 4 5 5
7 6 5 4 4 4 3 3 2 2 2 2 2 3 3 4 5 5 4 5 4 5 4 5 5 6 5 4 4 4 4 3 2 3 4 3 3 3 3 3 4 4 5
7 6 5 5 4 4 4 3 3 2 2 2 2 2 2 3 4 5 5 5 5 5 5 6 5 5 5 5 4 5 6 4 3 2 3 3 3 3 3 3 2 3 3
7 6 6 5 5 4 4 4 3 3 2 1 1 2 3 3 4 5 5 5 5 5 5 6 4 5 5 6 5 4 5 5 6 5 3 3 2 3 2 3 2 2 2
7 7 6 6 5 5 4 4 3 3 2 2 2 2 3 2 3 4 5 4 5 5 5 5 5 6 5 6 6 5 5 4 5 5 5 4 3 3 2 2 2 2 2
Wind_Direction
98 91 87 87 89 89 90 91 93 93 94 97 98 99 101 105 108 111 114 115 117 116 114 115 115 115 114 113 112 112 114 116 116 116 117 116 116 117 120 123 127 115 118
105 99 95 89 88 88 90 91 91 92 93 93 96 98 100 104 109 112 116 115 117 119 117 115 115 116 116 115 114 116 117 119 121 121 123 120 118 119 119 116 106 115 122
108 107 109 94 93 91 91 92 94 93 93 94 95 97 97 100 110 114 115 115 115 120 121 118 117 117 117 115 115 118 120 121 124 130 138 127 121 121 120 116 111 120 123
108 108 101 100 97 96 95 95 96 96 94 92 94 95 96 99 107 113 115 116 115 116 119 120 119 119 119 118 117 118 120 123 132 155 140 127 126 123 125 124 125 125 126
105 105 103 107 104 101 98 96 96 96 95 93 94 96 97 99 104 109 112 113 115 117 119 121 121 121 121 120 119 118 120 126 145 157 119 120 119 125 129 129 130 130 129
113 112 107 111 108 103 101 98 96 96 95 93 94 95 96 100 103 105 108 111 113 116 118 122 124 123 122 120 120 120 124 141 167 126 123 126 124 128 131 131 133 132 131
111 106 110 109 108 106 103 102 100 98 95 94 94 96 96 98 101 103 106 109 112 113 114 119 120 122 123 122 120 121 127 154 135 122 128 126 122 131 134 134 135 136 134
110 111 114 117 109 107 105 106 103 98 94 92 94 98 99 100 100 101 104 107 112 116 118 120 122 124 124 126 122 124 136 180 134 125 126 121 121 133 136 137 137 139 139
114 116 120 130 128 124 111 103 102 100 98 96 96 98 100 101 101 102 105 109 116 119 122 123 124 127 125 125 126 130 145 200 147 127 128 122 129 138 142 141 142 142 143
115 113 122 118 117 126 124 117 111 106 104 102 99 101 107 114 111 113 116 113 119 121 122 125 126 127 129 131 135 142 169 206 150 136 132 128 138 146 150 150 149 147 148
125 117 114 115 119 117 116 125 131 126 121 130 118 121 138 121 117 123 102 113 118 119 119 122 129 134 145 147 149 165 192 178 139 134 129 129 148 154 155 157 157 156 160
133 128 122 120 125 118 115 122 130 128 125 122 114 122 117 108 112 112 114 115 121 125 128 128 145 163 181 153 158 189 178 153 153 149 132 140 157 162 164 165 168 170 172
140 137 138 133 126 121 122 123 119 116 122 124 113 115 112 121 124 122 128 134 134 145 141 143 168 156 145 137 163 163 147 158 153 146 137 150 163 172 173 176 178 179 184
148 149 148 146 144 136 127 126 146 135 134 126 126 139 128 123 122 115 125 132 145 139 137 145 144 141 147 158 164 162 168 179 147 137 136 153 169 179 183 185 186 190 194
161 162 162 167 159 160 162 193 148 139 135 130 136 139 147 144 129 128 129 142 156 143 156 165 159 157 171 173 178 172 173 152 152 153 143 159 176 185 190 194 196 198 198
175 175 174 183 181 185 184 184 169 161 167 168 161 150 186 162 146 155 155 166 161 164 161 173 156 174 186 176 186 189 202 183 169 179 170 167 179 186 195 201 204 203 203
181 181 186 193 189 193 192 189 179 178 165 184 179 183 202 191 173 197 180 191 178 175 177 196 178 189 196 193 195 202 209 211 196 197 198 191 183 186 196 204 209 210 210
180 179 192 198 179 181 185 197 189 186 170 195 203 201 209 210 209 220 215 204 196 209 204 190 206 194 200 221 214 217 211 202 207 210 212 204 205 198 193 201 209 213 215
180 182 187 193 189 190 190 206 209 202 220 220 219 221 216 226 222 222 225 216 214 212 219 221 184 212 207 224 225 213 219 221 212 213 217 216 212 216 211 190 201 211 217
174 181 184 185 187 193 192 204 225 223 220 221 221 210 222 228 227 232 222 214 234 220 220 232 228 235 242 239 250 234 232 225 226 219 222 217 213 216 218 214 206 207 212
168 174 179 182 173 186 191 207 209 217 227 225 225 213 220 231 227 233 244 207 235 232 234 229 236 229 232 228 239 235 227 226 222 223 231 236 225 223 223 220 228 225 207
170 174 175 177 174 187 183 202 225 261 255 244 247 224 235 238 241 230 238 236 231 238 233 239 237 249 242 222 238 247 233 213 208 217 218 224 229 221 217 217 220 227 239
173 177 178 174 172 185 184 193 191 207 240 237 239 234 245 251 244 251 239 243 239 240 235 237 237 241 250 240 234 247 257 243 198 193 205 216 218 227 233 222 221 228 235
174 174 173 170 174 180 191 203 213 232 256 277 266 250 250 251 249 243 242 240 241 243 240 242 237 246 248 253 243 244 259 283 260 221 205 195 200 219 238 248 246 230 238
172 171 168 169 171 178 196 199 219 240 254 267 261 254 254 240 245 248 244 244 241 244 243 246 250 249 249 254 256 252 248 244 247 251 245 225 215 222 226 242 250 256 250
169 170 169 169 177 183 192 201 221 242 256 266 277 284 266 246 244 244 241 243 243 245 243 243 246 244 252 258 257 254 250 247 241 242 248 241 237 232 221 240 245 247 247
Height
1530 1529 1527 1527 1527 1527 1527 1527 1527 1527 1527 1528 1528 1528 1528 1528 1528 1529 1530 1532 1533 1535 1536 1537 1538 1539 1541 1542 1543 1544 1546 1547 1548 1549 1550 1552 1553 1554 1555 1556 1558 1559 1560
1532 1531 1529 1529 1529 1530 1530 1530 1530 1530 1530 1530 1530 1530 1529 1529 1529 1530 1532 1534 1535 1537 1538 1539 1541 1542 1543 1544 1545 1547 1548 1549 1550 1552 1553 1554 1555 1556 1557 1558 1560 1561 1561
1534 1533 1532 1532 1532 1532 1533 1533 1533 1533 1533 1533 1533 1532 1531 1530 1529 1531 1534 1536 1537 1538 1540 1542 1543 1544 1546 1547 1548 1549 1550 1551 1553 1554 1555 1557 1557 1558 1559 1559 1561 1562 1563
1536 1536 1535 1534 1534 1535 1535 1535 1535 1535 1535 1535 1535 1534 1533 1533 1533 1534 1536 1538 1540 1540 1542 1544 1545 1547 1548 1549 1550 1551 1552 1553 1554 1556 1558 1559 1559 1559 1560 1561 1562 1563 1565
1538 1538 1536 1536 1537 1537 1537 1537 1538 1538 1538 1537 1537 1537 1537 1537 1537 1538 1540 1541 1542 1543 1545 1546 1547 1549 1550 1551 1552 1553 1554 1555 1556 1558 1560 1560 1560 1560 1561 1563 1564 1565 1566
1540 1541 1538 1538 1539 1539 1540 1540 1540 1540 1540 1540 1540 1540 1540 1540 1540 1541 1542 1544 1545 1546 1547 1548 1549 1551 1552 1553 1553 1555 1556 1557 1559 1560 1561 1561 1562 1562 1563 1564 1565 1566 1568
1542 1543 1541 1540 1541 1541 1542 1542 1542 1542 1542 1542 1542 1542 1542 1543 1543 1544 1545 1546 1547 1548 1549 1550 1551 1552 1554 1554 1555 1556 1557 1558 1561 1562 1562 1563 1563 1563 1564 1565 1566 1568 1569
1543 1544 1543 1542 1543 1543 1544 1544 1544 1544 1544 1544 1544 1545 1545 1545 1545 1546 1547 1548 1549 1550 1551 1552 1553 1554 1555 1556 1557 1558 1558 1559 1562 1563 1563 1564 1563 1564 1565 1567 1568 1569 1571
1544 1545 1545 1546 1545 1545 1545 1545 1546 1546 1546 1546 1546 1547 1547 1547 1548 1548 1549 1550 1551 1552 1553 1554 1555 1556 1557 1558 1558 1559 1560 1560 1563 1563 1564 1565 1565 1565 1567 1568 1569 1570 1572
1545 1546 1547 1548 1548 1548 1548 1547 1548 1548 1548 1548 1548 1548 1549 1549 1550 1550 1552 1552 1553 1554 1555 1555 1557 1557 1558 1559 1560 1560 1561 1562 1564 1565 1565 1565 1565 1566 1568 1569 1570 1571 1572
1546 1547 1548 1549 1549 1550 1550 1549 1550 1550 1550 1550 1550 1550 1551 1552 1553 1553 1554 1554 1555 1555 1556 1557 1558 1559 1559 1560 1561 1561 1562 1564 1565 1565 1566 1566 1566 1567 1568 1569 1571 1572 1573
1548 1548 1549 1550 1550 1551 1551 1551 1552 1553 1552 1552 1552 1553 1553 1553 1555 1555 1555 1555 1556 1557 1558 1558 1559 1560 1561 1562 1562 1562 1564 1564 1565 1566 1566 1566 1567 1568 1569 1570 1571 1572 1574
1548 1549 1549 1550 1550 1551 1552 1553 1553 1553 1553 1554 1553 1554 1554 1555 1556 1557 1557 1557 1558 1559 1560 1560 1561 1562 1563 1563 1563 1564 1564 1565 1565 1566 1566 1566 1567 1568 1569 1570 1571 1572 1573
1548 1549 1550 1550 1550 1551 1552 1553 1553 1554 1554 1555 1555 1555 1556 1557 1557 1558 1558 1559 1560 1560 1560 1561 1562 1562 1562 1563 1564 1564 1565 1565 1566 1566 1566 1566 1567 1568 1569 1570 1571 1572 1573
1548 1549 1550 1550 1550 1550 1551 1552 1554 1554 1555 1556 1556 1556 1557 1558 1558 1559 1559 1559 1560 1561 1561 1561 1562 1562 1562 1563 1564 1564 1565 1565 1566 1567 1567 1566 1567 1568 1569 1569 1570 1571 1572
1548 1549 1549 1550 1550 1550 1551 1552 1553 1554 1554 1556 1556 1557 1557 1558 1559 1559 1559 1559 1560 1561 1562 1562 1562 1562 1563 1563 1564 1564 1565 1565 1565 1566 1567 1567 1567 1567 1568 1569 1570 1570 1571
1548 1548 1549 1549 1550 1550 1551 1552 1553 1554 1555 1555 1556 1556 1557 1558 1558 1559 1560 1560 1560 1561 1561 1561 1562 1562 1563 1563 1563 1564 1564 1564 1565 1565 1566 1566 1567 1567 1567 1568 1569 1569 1570
1547 1548 1548 1550 1550 1550 1551 1552 1553 1554 1554 1555 1556 1556 1557 1557 1558 1558 1559 1560 1560 1560 1561 1561 1562 1562 1562 1563 1563 1563 1563 1563 1563 1564 1565 1565 1566 1567 1566 1567 1567 1568 1569
1546 1547 1548 1549 1550 1550 1551 1551 1552 1553 1553 1554 1555 1556 1556 1557 1557 1558 1558 1559 1559 1560 1560 1561 1561 1561 1562 1562 1562 1562 1562 1562 1562 1563 1564 1564 1565 1565 1565 1565 1565 1566 1567
1546 1547 1548 1548 1549 1550 1550 1551 1551 1552 1552 1553 1554 1554 1555 1555 1556 1557 1557 1557 1558 1559 1559 1559 1559 1560 1560 1560 1561 1561 1561 1561 1561 1562 1562 1563 1563 1563 1563 1564 1564 1564 1564
1545 1546 1547 1548 1548 1549 1550 1551 1551 1551 1552 1552 1553 1553 1554 1554 1555 1555 1556 1556 1556 1557 1557 1558 1558 1559 1559 1559 1559 1559 1559 1559 1559 1559 1560 1561 1561 1561 1561 1561 1562 1562 1562
1545 1546 1547 1547 1548 1549 1549 1550 1550 1551 1551 1552 1552 1552 1552 1553 1553 1554 1554 1555 1555 1555 1556 1556 1556 1557 1557 1557 1558 1557 1557 1558 1556 1557 1557 1557 1558 1558 1559 1559 1559 1559 1560
1544 1545 1547 1547 1547 1548 1549 1549 1550 1550 1550 1551 1551 1551 1551 1551 1551 1552 1552 1553 1553 1554 1554 1554 1554 1554 1555 1555 1555 1556 1555 1554 1555 1555 1554 1555 1555 1556 1556 1557 1556 1556 1557
1544 1545 1546 1546 1547 1547 1548 1549 1549 1550 1550 1550 1550 1549 1549 1549 1550 1550 1550 1550 1550 1551 1551 1552 1552 1552 1553 1553 1553 1552 1553 1553 1553 1552 1553 1553 1553 1553 1553 1554 1554 1554 1554
1543 1544 1545 1545 1546 1546 1547 1547 1547 1548 1548 1548 1548 1548 1547 1548 1548 1548 1548 1548 1548 1549 1549 1549 1550 1550 1550 1550 1550 1550 1550 1550 1550 1551 1550 1551 1550 1550 1550 1550 1551 1551 1551
1542 1543 1544 1544 1545 1545 1545 1546 1546 1546 1546 1546 1546 1546 1546 1546 1546 1546 1546 1546 1546 1546 1546 1547 1547 1547 1547 1547 1547 1547 1547 1547 1547 1548 1548 1548 1548 1548 1548 1548 1548 1548 1548